COSMOS 2251 DEB, 34882

Orbit data source: Space-Track

COSMOS 2251 DEB, 34882 is space debris in LEO originally from a launch on Wed, 16 Jun 1993 UTC launched from the Plesetsk Missile And Space Complex (PKMTR). The debris from Iridium 33, an American commercial communications satellite, has been tracked extensively since its accidental collision with the defunct Russian satellite Cosmos 2251 in 2009. This event, occurring at high speed in low Earth orbit (LEO), generated thousands of pieces of space debris, significantly increasing the risk of further collisions. The Iridium 33 debris cloud has impacted space traffic management and orbital debris mitigation strategies, making it a subject of ongoing study in space situational awareness.

Loading next visibility...
Identifier
34882, 1993-036ACV
Orbit
LEO
Country
Flag of CISCIS
Related business
Manufacturer
Unknown
Mission
Spacecraft
Bus & Motor
Unknown
Mass
Unknown
Launch date (UTC)
1993-06-16 (33 years ago)
Launch vehicle
Unknown
Launch site
Plesetsk Missile And Space Complex (PKMTR)
Object type
Payload
Rocket body
Debris
Shape & HBR
Unknown shape, 0.1 m
Radar Cross Section
Small (<0.1 m²)

Expand to show TLE details & history
Last TLE update: 1 day ago

TLE from 1 day ago
0 COSMOS 2251 DEB
1 34882U 93036ACV 25354.03557184  .00000456  00000-0  93819-4 0  9997
2 34882  74.0454 211.6418 0083170 336.8506  22.8920 14.61609371886311
Epoch: 2025-12-20T00:51Z
TLE epoch observation values (Epoch: 2025-12-20T00:51:13.406Z)
Latitude
-0.00015°
Longitude
109.96775°
Altitude
636.55 km
Speed
7.569 km/s
True Right ascension
14h 06m 34s
True Declination
0° 00' 01"
Sunlit
Object was in daylight at epoch
Visualization orbit readout
Latitude
Unknown
Longitude
Unknown
Altitude
Unknown
Speed
Unknown
Apparent Right ascension
Unknown
Apparent Declination
Unknown
Sunlit
N/A
Visualization observer readout
Local Sidereal Time
11:44:05
Azimuth
Unknown
Elevation
Unknown
Doppler factor
Unknown
Orbital elements
Apogee altitude
744.326 km
Perigee altitude
626.828 km
Semi-major axis
7,063.714 km
Eccentricity
0.00832
Inclination
74.0454°
RAAN
211.6418°
Arg. of periapsis
336.8506°
True anomaly
23.26632°
Mean anomaly
22.892°
Eccentric anomaly
23.0788°
Mean motion
3.65589 °/min
Orbital period
98.47 mins
BSTAR
0.000093819
Loading maneuver chart data...
Computing Atmospheric mass density...
Loading historical data...
Loading historical data...
Loading historical data...
Loading historical data...
Loading historical data...
Loading historical data...
Loading historical data...

Documentation

Showing up to 5 results
|